Current weather by "City, St" or "zip code"  
 

Current Conditions: Willimantic, Windham Airport, CT

Fair


61.0 F

Last Updated on Sep 18 2020, 2:52 am EDT
Humidity: 78%
Wind Speed: N 6.9 mph
Barometer 29.95 in
Dewpoint: 54.0 F
Visibility: 10.00 mi
Precip: --
Heat Index: NA
Wind Chill: 60 F
Current conditions at:

Willimantic, Windham Airport, CT (KIJD)

Lat: 41.74194 Lon: 72.18361

Local Radar Image active severe weather and emergency alerts image image weather storm and storm spotter reports image weather observation monitoring service image
Local
Radar
Active
Alerts
Storm Reports Obs
Monitoring

Sign-up For Email & Text Message Weather Alert Notification Services



Advertise Here

Observation History for Willimantic, Windham Airport, CT


Time Wind
(mph)
Vis
(mi)
Weather Precip (in) Temperature (F) Relative
Humidity
Wind
Chill
(F)
Heat
Index
(F)
Pressure
Air Dwpt altimeter
(in)
sea level
(mb)
Rmks
2:52 am EDT N 6.9 10.00 Fair -- 61.0 54.0 78% 60 NA 29.95 1014.2
1:52 am EDT N 5.8 10.00 Fair -- 61.0 55.9 84% 61 NA 29.97 1014.6
12:52 am EDT N 4.6 10.00 Mostly Cloudy -- 61.0 57.9 90% 61 NA 29.98 1015.1
11:52 pm EDT N 0.0 10.00 Overcast -- 62.0 59.0 90% NA NA 29.99 1015.4
10:52 pm EDT N 4.6 10.00 Overcast -- 62.0 59.0 90% 62 NA 29.99 1015.4
9:52 pm EDT N 0.0 10.00 Mostly Cloudy -- 62.0 57.9 86% NA NA 30.00 1015.6
8:52 pm EDT N 0.0 10.00 Fair -- 64.0 59.0 84% NA NA 30.00 1015.7
7:52 pm EDT SE 3.5 4.00 Fair with Haze -- 68.0 59.0 73% NA NA 29.99 1015.5
6:52 pm EDT S 4.6 10.00 Fair -- 70.0 59.0 68% NA NA 29.97 1014.7
5:52 pm EDT S 8.1 10.00 Fair -- 72.0 57.0 59% NA NA 29.97 1014.7
4:52 pm EDT S 6.9 10.00 Fair -- 74.0 57.0 56% NA NA 29.96 1014.6
3:52 pm EDT W 8.1 10.00 Fair -- 75.0 53.1 46% NA NA 29.98 1015.1
2:52 pm EDT W 9.2 G 16.1 10.00 Fair -- 75.0 52.0 45% NA NA 29.99 1015.5
1:52 pm EDT W 8.1 10.00 Fair -- 75.0 51.1 43% NA NA 30.00 1015.6
12:52 pm EDT SW 10.4 10.00 A Few Clouds -- 74.0 54.0 50% NA NA 30.02 1016.3
11:52 am EDT SW 8.1 10.00 Fair -- 72.0 55.9 57% NA NA 30.03 1016.6
10:52 am EDT W 8.1 10.00 Fair -- 70.0 55.0 59% NA NA 30.04 1017.2
9:52 am EDT 4.6 9.00 Fair -- 66.0 57.0 73% NA NA 30.06 1017.8
8:52 am EDT N 0.0 4.00 Fog/Mist -- 57.0 54.0 90% NA NA 30.06 1018.0
7:52 am EDT N 0.0 8.00 Partly Cloudy -- 52.0 51.1 97% NA NA 30.07 1018.3
6:52 am EDT N 0.0 3.00 Fog/Mist -- 49.0 48.0 97% NA NA 30.06 1017.8
5:52 am EDT N 0.0 7.00 Fair -- 50.0 46.9 89% NA NA 30.06 1017.8
4:52 am EDT N 0.0 9.00 A Few Clouds -- 51.0 48.9 92% NA NA 30.07 1018.0
3:52 am EDT N 0.0 9.00 Overcast -- 52.0 50.0 93% NA NA 30.07 1018.3

Regional Weather Observation


Willimantic, Windham Airport, CT (KIJD)

Fair
61.0 F

Hartford, Hartford-Brainard Airport, CT (KHFD)

Fair
61.0 F

()


F

()


F

Westfield, Barnes Municipal Airport, MA (KBAF)

Fair
57.0 F

Meriden, Meriden Markham Municipal Airport, CT (KMMK)

Fair
60.0 F